星链-2014 (STARLINK-2014 )

导读 | 星芒AI

STARLINK-2014 并非实际存在的卫星名称,可能是对“Starlink”项目或某次发射任务的误解或误写。Starlink 是由 SpaceX 开发的卫星互联网项目,旨在通过低轨卫星群为全球提供高速互联网服务。自 2019 年起,SpaceX 已多次发射 Starlink 卫星,每批通常包含 50 至 60 颗卫星。该项目计划部署数万颗卫星,以提升网络覆盖和连接质量,尤其在偏远地区。

基本信息
目录编号:
47637
目录名称:
STARLINK-2014
国际标识:
2021-012T
轨道中心:
EARTH
卫星名称:
星链-2014
卫星全名:
星链-2014 (STARLINK-2014 )
卫星状态:
已陨落 最后检测时间 2025-02-10
发射日期:
2021-02-16 UTC
国别 :
美国 (US)
星等 :
--
轨道信息
数据来源 国际轨道数据
星历时间: 2025-02-10T14:55:11+0800
轨道信息已过期309天
半长轴: 6516.5km
偏心率: 0.0004891
轨道倾角: 53.017°
近地点辐角 242.862°
升交点赤经 334.822°
平近点角 163.602°
近地点: 135.177km
远地点: 141.553km
周期: 87.253分钟
每日圈数: 16.503695
详细信息
固有亮度:
5
最大亮度:
2.5
卫星平台:
Starlink V1.0
覆盖范围:
全球
运营商:
太空探索技术公司
运营商所在国:
美国
制造商(研发单位):
太空探索技术公司
制造商所在国:
美国
使用方式:
暂无
卫星简介
星链(Starlink)计划是由太空探索技术公司(SpaceX)提出的一个巨型低轨卫星互联网星座项目,计划在2019年至2024年间在太空搭建由约1.2万颗卫星组成的“星链”网络,其中1584颗将部署在地球上空550千米处的近地轨道,并从2020年开始工作。该卫星仍在工作。